Regional Weather Roundup
Issued by NWS Green Bay, WI

Home | Current Version | Previous Version | Graphics & Text | Print | Product List | Glossary Off
Versions: 1 2 3 4 5 6 7 8 9 10 11 12 13 14 15 16 17 18 19 20 21 22 23 24 25 26 27 28 29 30 31 32 33 34 35 36 37 38 39 40 41 42 43 44 45 46 47 48 49 50

000
ASUS43 KGRB 280201
RWRGRB

NORTH-CENTRAL AND NORTHEAST WISCONSIN REGIONAL WEATHER ROUNDUP
NATIONAL WEATHER SERVICE GREEN BAY WI
900 PM CDT THU JUL 27 2017

WIZ005-009-010>012-018-019-280300-
NORTH CENTRAL WISCONSIN

CITY           SKY/WX    TMP DP  RH WIND       PRES   REMARKS
IRONWOOD       PTCLDY    64  61  90 CALM      30.08S
MANITOWISH WTR PTCLDY    67  61  80 NE3       30.07F
ARBOR VITAE    NOT AVBL
EAGLE RIVER    NOT AVBL
LAND O LAKES   NOT AVBL
RHINELANDER    MOCLDY    69  60  73 NE3       30.07S
PHILLIPS       CLEAR     66  61  83 N5        30.06R
ANTIGO         CLOUDY    67  59  74 E6        30.06R
TOMAHAWK       NOT AVBL
MERRILL        NOT AVBL
$$

WIZ013-073-280300-
NORTHEAST WISCONSIN

CITY           SKY/WX    TMP DP  RH WIND       PRES   REMARKS
IRON MOUNTAIN  NOT AVBL
MARINETTE      PTCLDY    67  57  70 NE8       30.03S
$$

WIZ017-030-035>037-045-280300-
CENTRAL WISCONSIN

CITY           SKY/WX    TMP DP  RH WIND       PRES   REMARKS
MEDFORD        NOT AVBL
WAUSAU         PTCLDY    70  61  73 E3        30.01S
MOSINEE        MOCLDY    68  63  83 E6        30.03S
MARSHFIELD     MOCLDY    72  59  63 E3        30.01S
WISC RAPIDS    PTCLDY    69  62  78 CALM      30.02S
STEVENS POINT  NOT AVBL
WAUPACA        NOT AVBL
SHAWANO        PTCLDY    70  58  66 E5        30.02R
CLINTONVILLE   PTCLDY   N/A N/A N/A CALM      30.01S
WAUTOMA        PTCLDY    68  62  81 CALM      30.01R
$$

WIZ038-039-048-051-280300-
FOX VALLEY

CITY           SKY/WX    TMP DP  RH WIND       PRES   REMARKS
NWS GREEN BAY  PTCLDY    70  64  81 E6        30.01S
APPLETON       MOCLDY    72  55  56 VRB5      30.00S
OSHKOSH        PTCLDY    73  61  65 E9        30.00S
FOND DU LAC    PTCLDY    72  58  61 E6        30.00S
$$

WIZ022-050-052-280300-
EAST CENTRAL WISCONSIN

CITY           SKY/WX    TMP DP  RH WIND       PRES   REMARKS
EPHRAIM        NOT AVBL
WASHINGTON ISL MOCLDY    64  54  70 N9        30.02R
STURGEON BAY     N/A     66  55  67 NE8       30.03R
MANITOWOC      NOT AVBL
SHEBOYGAN      PTCLDY    66  60  81 N6        30.00S
$$

LMZ563-521-522-541>543-280300-
LAKESHORE

STATION/POSITION TIME  TEMP    WIND        PRES    VSBY  WAVE
                       AIR SEA DIR/SP/G                  HT/PER
                 (UTC) (F)     (DEG/KT/KT) (MB)    (MI)  (FT/S)
SHEBOYGAN LKSHOR 0100   70      10/ 12/ 14 1015.2S
KEWAUNEE LKSHORE 0130   67      30/  2/  6 1015.2F
NORTHPORT PIER   0140   69     360/ 10/ 13 1016.3S
N MID LAKE BUOY  0050   68 67   20/ 16/ 17 1016.5S         2/ 3
S GREEN BAY BUOY 0130   73 72   70/ 17/ 21 1015.8R
SISTER BAY LKSHO 0102   71      70/ 10/ 14   N/A
CHAMBERS ISLAND  0140   70      20/ 13/ 16 1015.9S
MENOMINEE LKSHOR 0130   71      40/ 17/ 20 1016.1S
$$




USA.gov is the U.S. government's official web portal to all federal, state and local government web resources and services.